Tracking 30692 objects as of 16-Jun-2025
HD Live streaming from Space Station
objects crossing your sky now

ORBCOMM FM 15

Track ORBCOMM FM 15 now!
10-day predictions
ORBCOMM FM 15 is classified as:


NORAD ID: 25418
Int'l Code: 1998-046F
Perigee: 765.7 km
Apogee: 775.1 km
Inclination: 45.0 °
Period: 100.1 minutes
Semi major axis: 7141 km
RCS: 0.6025 m2 (medium)
Launch date: August 2, 1998
Source: ORBCOMM (ORB)
Launch site: Pegasus launched from Eastern Range Air Space (ERAS)
Your satellite tracking list
Your tracking list is empty




NASA's NSSDC Master Catalog

Two Line Element Set (TLE):
1 25418U 98046F   25166.49323052  .00000705  00000-0  27429-3 0  9994
2 25418  44.9952 186.0261 0006550 284.6935  75.3187 14.38554712404001
Source of the keplerian elements: AFSPC